Saint Simons Island, GA

4:13 AM EDT on July 24, 2017 (GMT -0400)
McKinnon

Weather History for KSSI - January, 2013

Change the Weather History Date:

Thursday, January 17, 2013

  Actual Average Record
Temperature  
Mean Temperature 58 °F 51 °F  
Max Temperature 73 °F 60 °F 77 °F (1974)
Min Temperature 43 °F 42 °F 20 °F (1977)
Degree Days  
Heating Degree Days 7 14  
Month to date heating degree days 91 238  
Since 1 July heating degree days 561 769  
Cooling Degree Days 0 0  
Month to date cooling degree days 12 0  
Year to date cooling degree days 12 0  
Growing Degree Days 8 (Base 50)    
Moisture  
Dew Point 52 °F    
Average Humidity 77    
Maximum Humidity 93    
Minimum Humidity 60    
Precipitation  
Precipitation 0.00 in 0.10 in 1.81 in (1964)
Month to date precipitation 0.21 1.63  
Year to date precipitation 0.21 1.63  
Snow  
Snow 0.00 in - 0.00 in ()
Month to date snowfall 0.0  
Since 1 July snowfall 0.0  
Snow Depth 0.00 in    
Sea Level Pressure  
Sea Level Pressure 29.96 in    
Wind  
Wind Speed 11 mph (SW)    
Max Wind Speed 28 mph    
Max Gust Speed 37 mph    
Visibility 10 miles    
Events      
T = Trace of Precipitation, MM = Missing Value Source: NWS Daily Summary

Daily Weather History Graph

Daily Weather History Graph

Search for Another Location

Airport or City:

Trip Planner

Search our weather history database for the weather conditions in past years. The results will help you decide how hot, cold, wet, or windy it might be!

Date:

Astronomy

Jan. 17, 2013 Rise Set
Actual Time 7:24 AM EST 5:47 PM EST
Civil Twilight 6:58 AM EST 6:13 PM EST
Nautical Twilight 6:28 AM EST 6:43 PM EST
Astronomical Twilight 5:59 AM EST 7:12 PM EST
Moon 10:58 AM EST (1/17) No Moon Set
Length of Visible Light 11h 15m
Length of Day
10h 23m
Waxing Crescent, 37% of the Moon is Illuminated
Jan 17
Waxing Crescent
Jan 18
First Quarter
Jan 26
Full
Feb 3
Last Quarter
Feb 10
New

Hourly Weather History & Observations

Time (EST) Temp. Windchill Dew Point Humidity Pressure Visibility Wind Dir Wind Speed Gust Speed Precip Events Conditions
12:53 AM 63.0 °F - 60.1 °F 90% 30.01 in 10.0 mi South 4.6 mph - N/A   Clear
1:53 AM 64.0 °F - 59.0 °F 84% 30.01 in 10.0 mi SSW 3.5 mph - N/A   Clear
2:53 AM 62.6 °F - 59.0 °F 88% 29.99 in 10.0 mi South 3.5 mph - N/A   Clear
3:53 AM 62.1 °F - 59.0 °F 90% 29.99 in 10.0 mi South 4.6 mph - N/A   Clear
4:53 AM 62.1 °F - 59.0 °F 90% 29.98 in 10.0 mi South 4.6 mph - N/A   Clear
5:53 AM 62.6 °F - 59.0 °F 88% 29.97 in 10.0 mi SSE 3.5 mph - N/A   Clear
6:53 AM 62.6 °F - 59.0 °F 88% 29.97 in 10.0 mi SSE 5.8 mph - N/A   Clear
7:53 AM 62.1 °F - 59.0 °F 90% 29.97 in 10.0 mi South 5.8 mph - N/A   Clear
8:53 AM 64.9 °F - 60.1 °F 84% 29.97 in 10.0 mi South 5.8 mph - N/A   Clear
9:53 AM 66.9 °F - 60.1 °F 79% 29.96 in 10.0 mi SSE 6.9 mph - N/A   Clear
10:53 AM 68.0 °F - 60.1 °F 76% 29.94 in 10.0 mi South 5.8 mph - N/A   Mostly Cloudy
11:53 AM 72.0 °F - 61.0 °F 68% 29.89 in 10.0 mi South 9.2 mph - N/A   Mostly Cloudy
12:53 PM 73.0 °F - 62.1 °F 68% 29.86 in 10.0 mi SW 16.1 mph 24.2 mph N/A   Overcast
1:50 PM 64.4 °F - 60.8 °F 88% 29.86 in 9.0 mi WSW 21.9 mph 31.1 mph N/A   Overcast
1:53 PM 64.0 °F - 60.1 °F 87% 29.87 in 7.0 mi WSW 21.9 mph 34.5 mph N/A   Overcast
2:11 PM 62.6 °F - 57.2 °F 82% 29.88 in 10.0 mi WSW 20.7 mph 31.1 mph N/A   Overcast
2:44 PM 60.8 °F - 55.4 °F 82% 29.89 in 10.0 mi West 20.7 mph 34.5 mph N/A   Overcast
2:53 PM 60.1 °F - 52.0 °F 75% 29.90 in 10.0 mi WSW 24.2 mph 36.8 mph N/A   Overcast
3:34 PM 55.4 °F - 48.2 °F 77% 29.91 in 10.0 mi WSW 19.6 mph 36.8 mph N/A   Overcast
3:53 PM 57.0 °F - 46.0 °F 67% 29.91 in 10.0 mi WSW 18.4 mph 28.8 mph N/A   Overcast
4:53 PM 57.0 °F - 45.0 °F 64% 29.92 in 10.0 mi SW 19.6 mph 26.5 mph N/A   Overcast
5:53 PM 55.9 °F - 45.0 °F 67% 29.93 in 10.0 mi SW 12.7 mph - N/A   Clear
6:53 PM 55.9 °F - 45.0 °F 67% 29.96 in 10.0 mi WSW 13.8 mph - N/A   Clear
7:53 PM 50.0 °F - 37.9 °F 63% 30.02 in 10.0 mi WNW 13.8 mph 24.2 mph N/A   Clear
8:53 PM 46.9 °F - 34.0 °F 61% 30.07 in 10.0 mi WNW 15.0 mph 23.0 mph N/A   Clear
9:53 PM 45.0 °F 38.5 °F 33.1 °F 63% 30.11 in 10.0 mi WNW 13.8 mph 25.3 mph N/A   Mostly Cloudy
10:53 PM 44.1 °F 38.1 °F 32.0 °F 63% 30.13 in 10.0 mi NW 11.5 mph 24.2 mph N/A   Mostly Cloudy
11:53 PM 43.0 °F 36.8 °F 32.0 °F 65% 30.14 in 10.0 mi WNW 11.5 mph 23.0 mph N/A   Partly Cloudy